Theta_e
325 325 322 321 321 320 321 321 320 320 319 319 318 318 319 319 319 319 319 318 318 317 317 318 318 319 315 310 311 324 346 340 324 310 305 308 313 313 310 316 329 327 332 333 333 330 331
327 325 324 321 321 319 319 321 320 320 319 319 319 319 319 319 318 319 318 318 318 318 318 318 318 319 310 304 324 327 327 327 317 307 305 310 316 316 313 313 326 330 331 329 331 329 330
326 326 325 323 321 320 319 320 320 320 320 319 319 319 319 318 318 319 318 317 317 317 318 319 319 317 310 310 321 326 321 315 312 306 306 315 320 315 314 312 333 330 324 326 328 329 328
326 326 325 324 322 320 319 319 320 319 319 319 319 319 318 318 318 318 317 317 316 318 318 320 319 314 305 321 320 319 319 313 311 309 309 318 321 315 310 314 329 325 324 315 324 327 327
325 325 326 324 322 321 319 319 319 319 319 320 319 318 317 317 317 317 317 316 317 320 320 321 314 309 309 319 310 315 318 316 311 310 309 316 317 309 311 305 315 321 310 315 317 327 324
324 325 325 323 321 321 319 319 320 319 319 319 319 318 317 317 317 316 316 316 318 319 320 321 318 308 314 312 311 315 320 318 311 313 311 311 308 303 303 299 296 311 313 317 316 321 323
324 324 323 322 320 321 318 319 319 319 319 319 319 317 317 316 316 314 313 312 312 312 316 313 312 312 313 314 317 316 319 314 312 307 301 306 300 297 301 305 308 316 316 316 320 324 320
324 322 321 321 319 319 319 319 319 319 319 318 318 317 316 316 315 314 311 308 313 312 306 317 319 312 315 310 309 312 313 308 306 299 304 299 298 304 308 309 308 317 316 315 320 323 320
322 321 320 320 319 320 319 318 318 318 318 318 317 316 315 314 314 309 311 313 320 318 306 312 315 310 310 309 309 308 309 307 304 300 301 297 302 308 305 304 306 316 315 314 314 319 319
321 320 319 320 319 319 319 318 318 318 318 317 316 314 314 312 309 316 315 319 320 318 301 306 306 310 312 311 306 315 310 306 303 299 301 300 305 305 303 302 304 309 321 319 317 312 305
320 318 318 320 318 319 318 317 317 317 317 316 315 314 313 312 308 311 317 320 318 314 291 308 306 315 312 306 308 309 315 309 303 303 299 298 301 301 301 303 306 315 317 320 317 312 310
320 317 319 320 317 318 318 317 317 317 316 316 315 313 312 313 310 314 318 319 316 299 293 303 309 307 306 308 309 311 309 309 310 305 305 302 307 303 303 308 311 322 318 317 315 310 301
320 317 318 319 317 318 317 317 316 316 315 315 313 312 311 315 316 320 320 314 299 296 307 302 302 306 305 304 306 307 305 300 298 293 295 301 301 304 307 302 310 319 309 298 296 299 297
318 318 318 318 316 317 317 317 316 315 315 313 311 310 311 315 318 319 316 306 296 301 300 305 304 305 302 307 305 305 302 298 303 301 297 292 291 300 308 303 300 305 309 300 293 296 302
317 317 317 317 316 317 317 317 315 314 314 312 309 315 315 320 318 318 310 299 297 300 303 301 302 302 303 306 305 305 301 299 302 302 295 296 296 304 309 309 306 302 302 310 302 307 301
316 317 316 317 316 316 317 317 315 314 313 311 312 317 318 327 325 318 307 301 302 305 304 303 299 303 299 303 303 302 304 307 306 309 307 300 294 304 307 309 308 303 307 298 297 297 296
316 315 315 316 316 316 317 317 315 313 312 311 316 312 321 321 321 312 302 302 303 307 306 303 301 300 301 302 304 302 303 308 310 307 307 303 299 299 305 300 300 301 298 299 298 299 296
315 316 315 316 316 316 317 317 315 312 311 312 319 308 321 317 306 308 304 304 302 305 309 306 306 304 302 303 303 302 303 306 311 308 302 305 298 294 298 308 308 303 300 299 294 293 298
317 317 317 316 316 316 316 316 314 311 311 311 313 313 324 314 301 304 307 306 306 304 303 304 303 306 305 302 301 306 308 311 311 307 303 304 298 292 295 300 304 299 301 297 297 295 292
317 317 317 317 316 316 315 316 314 312 312 311 314 308 311 311 309 304 305 306 304 307 305 305 304 305 303 302 307 304 306 309 310 309 324 311 297 295 294 297 303 301 304 301 296 290 292
314 315 317 317 316 316 316 316 315 312 311 312 316 309 313 306 307 306 304 305 303 303 305 307 306 306 302 299 303 303 306 307 309 316 311 305 296 299 304 304 305 303 304 306 297 297 293
315 316 316 317 317 317 316 316 316 313 311 316 312 311 316 311 310 309 303 304 304 304 304 301 302 303 304 301 303 300 301 303 302 306 305 306 298 304 301 307 307 304 308 309 309 314 311
315 316 316 317 318 316 316 316 316 314 311 317 324 324 318 309 307 304 305 306 305 306 307 307 304 302 301 307 308 305 306 305 305 304 302 302 303 299 295 305 304 300 304 308 309 317 316
315 316 316 316 317 318 317 316 317 316 313 312 317 318 315 308 309 308 307 306 305 307 307 307 307 303 306 307 308 307 307 305 307 307 305 300 303 300 295 300 290 305 311 311 310 313 316
314 315 316 316 317 317 318 317 317 317 315 311 315 317 316 310 314 312 309 309 307 306 306 304 309 307 307 303 300 300 299 303 304 305 305 307 301 297 294 294 301 305 308 306 302 307 317
314 314 315 315 316 316 317 317 317 317 315 312 314 320 321 312 311 316 309 309 304 303 306 309 311 310 305 301 298 296 291 296 298 299 305 306 305 299 296 290 289 303 310 313 310 300 317
314 314 314 315 316 316 316 317 316 318 315 312 312 318 319 313 316 315 309 310 312 307 304 310 310 307 308 299 297 296 295 302 293 294 296 298 299 294 297 295 301 309 311 313 299 302 320
314 314 314 316 316 316 316 317 316 317 317 312 311 315 321 316 317 320 318 314 311 308 303 310 307 308 304 299 300 297 298 299 298 302 300 296 295 296 298 294 293 312 311 306 310 314 318
313 313 314 315 315 315 316 316 316 316 316 314 309 320 320 320 317 322 322 318 315 314 307 309 308 308 310 303 303 304 300 300 300 295 305 294 300 298 301 301 310 312 311 313 316 314 316
Wind_Speed
11 11 13 13 11 11 12 12 11 10 11 11 11 12 12 12 12 12 12 11 11 11 11 11 11 11 8 4 11 9 10 8 6 4 9 11 10 11 11 0 10 10 5 9 8 9 5
10 10 11 13 12 11 12 12 11 11 10 11 11 12 12 12 12 12 12 12 12 11 11 10 9 10 4 5 6 13 12 7 8 8 9 11 10 10 8 5 4 13 13 6 7 7 2
12 8 10 10 12 11 11 12 12 11 11 11 11 12 12 13 12 12 13 12 12 12 11 10 8 6 6 14 8 10 13 8 8 9 9 15 18 12 7 4 19 23 19 10 5 3 4
12 11 7 10 10 11 11 11 12 12 11 11 11 11 12 12 13 13 13 13 13 12 10 9 6 5 8 8 13 10 8 9 10 11 14 14 12 9 5 3 10 10 7 7 2 4 5
12 11 9 8 11 10 11 11 12 11 11 11 11 12 12 13 13 13 13 14 14 12 8 7 4 4 9 2 4 9 8 10 11 10 12 17 8 6 8 6 5 4 5 10 2 1 2
12 11 10 10 12 11 11 12 12 11 11 11 11 12 12 12 12 13 15 16 8 9 6 8 8 6 9 7 6 9 7 9 11 9 13 9 2 1 5 3 7 9 7 6 10 6 1
12 12 12 12 13 10 11 12 13 12 12 12 12 12 13 12 12 11 11 2 1 3 6 10 5 6 8 8 4 4 7 5 7 5 5 4 2 8 11 12 16 7 7 14 9 8 5
12 12 11 12 13 12 11 12 13 13 13 12 12 13 13 13 13 9 5 5 8 5 7 10 17 7 6 2 3 8 7 5 5 6 8 2 10 12 15 15 15 14 11 11 8 16 3
12 13 12 12 14 11 12 13 13 13 13 13 13 14 14 14 16 6 7 11 10 13 4 9 15 10 6 3 8 8 8 9 7 8 9 9 13 18 15 13 14 15 17 11 11 11 7
12 12 13 11 13 12 14 14 13 14 14 13 14 16 17 21 4 4 7 12 13 5 4 6 5 4 6 6 6 13 10 8 6 10 11 9 15 14 11 10 8 4 13 14 21 9 5
11 15 15 12 15 13 14 14 14 14 15 15 17 16 15 8 9 5 9 11 6 2 4 9 5 4 6 6 6 9 9 7 11 8 7 12 10 9 9 10 13 10 26 17 20 6 9
13 16 15 14 16 14 14 14 15 15 15 15 15 15 15 2 5 12 14 15 8 2 2 4 9 8 8 9 7 9 6 6 10 11 9 10 10 7 8 7 4 19 18 9 4 4 3
14 16 15 15 16 15 15 16 16 16 17 17 16 11 6 6 6 9 13 5 3 3 5 6 2 7 9 6 14 8 7 6 4 1 5 9 11 9 9 3 11 19 12 2 1 3 5
15 14 15 14 16 16 16 17 18 18 19 20 18 15 9 8 8 8 7 4 4 11 14 13 10 7 3 8 7 8 9 6 10 9 6 6 7 7 3 5 7 12 10 6 5 2 5
16 16 16 15 17 16 17 18 19 20 21 20 27 4 4 6 13 5 2 4 2 8 11 8 13 4 5 6 2 3 8 9 9 9 7 4 6 6 10 9 8 10 6 15 10 5 4
15 16 17 16 17 18 17 18 20 21 24 21 4 4 9 13 12 6 2 7 3 5 8 9 9 7 4 1 7 11 10 6 15 8 8 8 4 8 6 8 11 7 6 2 3 8 5
15 17 17 17 17 19 17 18 20 22 27 9 3 3 9 7 10 2 4 4 4 5 4 6 9 8 9 5 10 4 5 7 10 12 10 7 4 11 9 5 8 5 5 3 1 3 4
16 14 16 16 17 18 17 17 18 20 28 2 5 4 6 2 1 4 9 3 1 5 4 5 3 4 7 10 6 5 6 8 10 9 8 8 3 5 8 9 11 8 8 7 6 9 2
14 15 15 15 16 17 18 17 16 14 14 6 4 6 9 4 4 7 3 4 5 4 8 6 8 8 7 8 6 3 5 5 8 9 5 7 6 6 12 8 6 5 8 6 5 2 5
14 15 16 16 15 17 19 17 16 12 8 3 4 5 2 3 6 9 4 1 5 6 0 4 6 6 6 6 10 6 2 1 4 6 8 4 4 4 2 8 10 8 12 9 5 2 5
16 16 15 15 16 16 16 18 18 17 12 2 4 5 7 5 3 6 6 6 6 2 5 2 4 8 6 6 3 4 2 4 4 8 7 3 6 5 7 11 9 7 14 14 8 9 5
13 15 15 16 15 14 16 17 18 21 25 3 3 6 10 8 2 2 4 6 1 6 4 7 7 12 9 4 5 2 5 5 2 3 6 5 4 6 5 12 10 6 13 21 16 15 10
12 14 14 15 15 17 15 16 16 18 19 4 5 5 4 7 7 3 3 5 5 6 4 5 5 5 8 4 6 4 8 7 5 2 3 3 3 5 0 8 10 4 14 18 12 17 5
13 14 14 14 15 15 14 15 15 12 11 5 4 4 4 6 10 9 3 5 2 8 3 11 4 3 4 8 8 8 9 3 6 7 2 3 1 2 2 7 2 1 13 10 13 13 15
15 14 14 14 14 15 15 15 14 13 9 4 4 3 4 6 10 14 4 3 5 6 4 8 2 3 5 6 4 2 7 7 7 7 12 14 3 3 2 1 2 4 5 6 8 6 7
15 15 15 14 14 15 15 15 14 13 12 5 6 5 3 3 6 17 6 5 2 4 6 8 6 4 2 2 2 5 3 3 6 11 6 11 14 2 5 5 1 3 10 8 5 6 4
15 15 15 13 14 15 14 15 15 14 11 4 7 3 3 3 10 11 9 4 3 4 4 1 4 2 6 3 2 4 4 4 3 3 5 5 4 8 8 4 3 5 9 9 4 4 9
14 15 15 13 13 14 14 14 14 13 11 6 8 8 2 3 10 10 16 1 4 3 2 4 3 1 3 2 6 6 5 8 4 2 3 1 2 4 4 4 3 2 7 2 4 5 12
14 14 15 13 12 13 14 13 13 11 10 7 5 5 7 4 6 13 14 7 6 4 2 5 2 1 1 4 4 3 1 5 5 3 4 2 6 6 8 6 5 3 4 5 5 5 3
Wind_Direction
355 1 1 358 356 355 351 350 349 345 342 342 340 338 335 332 327 322 319 315 314 314 312 314 318 324 313 224 250 159 158 152 162 181 226 221 266 248 230 51 83 66 73 100 116 75 83
343 350 354 359 357 351 345 347 345 341 338 337 334 337 337 334 325 319 316 315 314 312 311 312 317 313 243 252 146 155 173 153 202 184 223 229 249 245 277 265 122 114 95 113 119 40 45
347 338 348 359 357 354 344 342 343 341 338 336 334 337 335 331 326 318 312 308 307 305 303 303 308 290 265 248 328 172 149 176 209 181 226 232 246 268 271 332 124 141 128 120 47 4 39
352 349 345 349 356 355 346 340 343 342 338 335 334 336 334 332 325 317 310 303 301 295 287 285 289 286 252 238 238 280 218 165 206 199 232 256 249 269 292 335 114 135 138 153 269 359 322
354 353 351 6 357 352 347 339 342 341 337 335 332 333 334 332 324 316 302 299 295 287 266 257 242 226 265 295 239 234 243 180 198 220 233 250 235 258 320 280 101 15 223 116 120 321 341
355 356 359 9 358 349 352 339 341 341 338 337 334 329 332 328 318 318 308 287 287 311 222 216 260 274 262 224 187 219 229 216 194 201 232 244 131 241 281 259 226 184 211 168 127 187 170
5 8 19 3 358 353 350 342 342 341 338 337 329 327 327 323 318 326 330 257 250 225 253 220 219 235 315 92 74 241 204 238 178 205 217 181 147 215 237 240 256 102 93 101 122 120 100
13 11 9 1 358 358 342 343 341 336 335 333 329 327 323 324 316 323 298 251 241 299 306 247 251 257 293 16 153 233 151 205 184 207 216 227 225 231 235 244 244 77 110 115 127 152 106
9 7 359 355 360 355 343 344 339 334 331 331 330 329 327 323 316 284 225 249 278 296 280 289 213 210 195 251 228 174 177 216 185 235 219 216 243 219 236 251 251 134 165 204 147 137 93
6 5 359 355 358 350 346 343 338 334 329 327 331 332 331 324 317 313 249 248 238 310 296 197 212 140 151 222 249 154 207 194 183 211 244 235 258 246 217 252 244 121 10 180 145 137 148
358 3 1 354 358 347 342 340 337 332 327 330 330 330 326 338 310 278 275 325 311 348 294 152 100 125 166 197 118 161 197 264 263 250 173 252 251 264 265 217 253 134 107 219 162 120 110
356 1 347 353 356 342 340 339 335 331 325 317 326 325 326 183 210 251 297 296 307 230 299 122 149 199 179 230 204 139 170 243 289 297 304 247 283 248 256 240 84 143 131 115 62 87 132
355 360 352 349 350 344 340 339 335 330 323 316 306 297 286 304 237 332 316 308 287 235 170 24 356 168 208 202 131 165 179 209 243 231 273 278 265 277 236 288 140 120 136 115 34 54 247
352 354 351 346 350 344 341 339 335 331 324 318 308 307 224 222 249 309 304 317 253 10 18 359 347 304 311 150 149 191 162 217 231 257 283 223 289 262 283 215 219 175 167 220 131 89 327
348 347 349 345 352 345 340 338 337 333 326 321 312 181 237 231 217 233 273 280 348 1 19 336 312 54 334 1 163 231 193 197 218 221 220 327 254 241 213 213 221 264 187 228 101 47 67
352 348 345 344 346 349 340 339 340 336 326 327 301 283 265 244 175 201 257 268 332 67 2 318 329 354 26 14 43 14 16 38 358 335 5 276 306 285 277 200 235 192 252 239 291 150 172
354 353 350 344 342 348 340 341 343 341 330 345 244 273 258 181 169 215 241 251 8 44 56 330 353 342 347 31 76 40 338 313 2 341 350 332 354 287 343 164 194 290 297 311 179 207 190
351 347 351 344 341 343 340 343 345 345 336 211 300 282 246 196 260 231 236 173 310 347 43 330 252 274 343 343 98 41 337 310 354 321 0 356 270 304 273 293 179 205 227 220 134 284 233
344 342 337 338 343 340 342 341 343 350 13 316 292 276 276 151 244 275 171 207 167 37 343 8 339 15 347 301 105 190 260 266 325 343 35 341 335 344 329 338 2 207 256 259 241 288 262
342 343 342 337 340 342 341 337 336 340 336 294 282 287 223 170 229 260 344 294 119 141 291 42 314 303 335 350 61 185 356 225 330 316 350 17 258 219 194 255 288 311 325 260 251 240 256
343 344 339 333 340 341 340 336 335 334 334 256 232 273 304 289 4 357 65 343 315 40 39 179 318 324 37 360 60 32 352 320 326 18 344 337 263 286 336 253 303 291 302 318 258 251 215
336 338 339 333 333 337 340 338 339 338 332 218 285 346 310 301 114 279 272 284 319 80 43 341 13 357 341 6 96 3 331 331 334 349 317 292 283 28 344 359 305 315 8 16 3 5 35
331 334 334 334 335 338 340 339 344 349 338 337 339 333 304 291 309 273 261 86 59 86 264 236 69 338 323 5 348 296 183 245 260 148 324 270 50 24 131 336 324 66 360 38 43 23 33
329 331 334 335 335 333 336 338 343 356 11 299 281 293 303 305 322 323 32 99 6 67 26 322 125 334 14 347 318 296 29 259 40 320 226 254 75 52 290 345 214 163 17 41 60 46 41
327 330 330 332 332 331 333 335 337 343 353 302 296 309 317 308 312 323 261 149 83 126 226 243 98 75 308 281 306 23 2 7 333 333 340 333 173 129 127 292 218 5 21 359 24 6 69
323 326 329 330 329 330 327 330 333 338 347 302 273 249 271 312 257 330 339 95 207 260 218 241 112 161 299 265 267 85 52 264 309 318 356 354 37 67 138 103 170 278 310 322 346 14 52
321 324 324 324 326 325 320 325 330 333 345 324 281 298 283 280 279 320 323 39 19 17 321 69 132 186 178 264 290 119 201 203 240 245 356 330 14 347 282 130 181 238 274 301 49 222 90
314 322 320 318 320 319 317 319 325 330 343 345 275 281 256 276 291 311 328 315 342 22 5 326 1 299 298 291 108 209 151 201 171 68 272 116 92 223 26 39 86 277 295 86 216 55 122
306 314 319 313 313 314 313 314 320 324 338 342 282 331 339 236 277 310 297 27 25 13 9 332 303 182 315 38 356 350 27 141 181 189 306 79 168 142 112 271 265 83 113 71 75 55 19